This is the latest recevied weather packets stored in our database for station/object 9W2CEW-1. If no packets are shown the sender has not sent any weather packets the latest 10 day(s).
| Time | Temp. | Humidity | Pressure | Rain* | Wind** | Luminosity | Snow |
|---|---|---|---|---|---|---|---|
| 1777565042 | 33.33° C | 69% | 1005.3 hPa | - | - | - | - |
| 1777564145 | 33.89° C | 65% | 1005.4 hPa | - | - | - | - |
| 1777563337 | 34.44° C | 63% | 1005.4 hPa | - | - | - | - |
| 1777563240 | 34.44° C | 63% | 1005.4 hPa | - | - | - | - |
| 1777562340 | 35° C | 61% | 1005.2 hPa | - | - | - | - |
| 1777561440 | 34.44° C | 62% | 1005.1 hPa | - | - | - | - |
| 1777560540 | 33.89° C | 64% | 1005 hPa | - | - | - | - |
| 1777559725 | 33.89° C | 63% | 1005 hPa | - | - | - | - |
| 1777559640 | 33.89° C | 63% | 1005 hPa | - | - | - | - |
| 1777558740 | 34.44° C | 62% | 1004.8 hPa | - | - | - | - |
| 1777557930 | 33.89° C | 62% | 1004.7 hPa | - | - | - | - |
| 1777557842 | 33.89° C | 62% | 1004.7 hPa | - | - | - | - |
| 1777556942 | 33.33° C | 65% | 1004.4 hPa | - | - | - | - |
| 1777556135 | 33.89° C | 65% | 1004.1 hPa | - | - | - | - |
| 1777556041 | 33.89° C | 65% | 1004.1 hPa | - | - | - | - |
| 1777555141 | 34.44° C | 63% | 1003.9 hPa | - | - | - | - |
| 1777554241 | 33.89° C | 63% | 1004.1 hPa | - | - | - | - |
| 1777553473 | 33.89° C | 63% | 1003.9 hPa | - | - | - | - |
| 1777553341 | 33.89° C | 63% | 1003.9 hPa | - | - | - | - |
| 1777552443 | 33.33° C | 65% | 1003.4 hPa | - | - | - | - |
| 1777551611 | 33.89° C | 65% | 1003.5 hPa | - | - | - | - |
| 1777551541 | 33.89° C | 65% | 1003.5 hPa | - | - | - | - |
| 1777550690 | 33.89° C | 63% | 1003.2 hPa | - | - | - | - |
| 1777550641 | 33.89° C | 63% | 1003.2 hPa | - | - | - | - |
| 1777549742 | 33.33° C | 64% | 1002.6 hPa | - | - | - | - |
* Rain since midnight (hover to see other rain measurements)
** Current wind speed in m/s (hover to see current wind gust speed)